STARLINK-5898 (55929 NORAD) Tracking and Keplerian Element Data

This shows tracking and keplerian element data for the satellite.

Feedback or suggestion? Click here.




ElementValue
Catalog55929
NameSTARLINK-5898
Epoch Orbit840
Epoch Day127.25001157
Epoch Year2023
RAAN41.1933
Inclination70.0016
Eccentricity0.0003207
Argument of Perigee273.2462
Mean Anonmoly95.6251
Mean Motion15.31409604
Decay Rate-0.00921904
L11 55929U 23037R 23127.25001157 -.00921904 00000+0 -33080-1 0 9992
L22 55929 70.0016 41.1933 0003207 273.2462 95.6251 15.31409604 8408



Live tracking and technical data element details for STARLINK-5898 (NORAD 55929). STARLINK-5898 can be tracked NOW for your location showing map with azimuth and elevation plus other details from your city location.







IsCatalogInMostPopularTable: catalog: 55929, numindb: 8
Update: records affected: 1



GetName: 55929 STARLINK-5898

Hit Count: updated at: Tue, 06 Jun 2023 03:01:00 GMT